Regional Weather Roundup
Issued by NWS

Home | Current Version | Previous Version | Graphics & Text | Print | Product List | Glossary On
Versions: 1 2 3 4 5 6 7 8 9 10 11 12 13 14 15 16 17 18 19 20 21 22 23 24 25 26 27 28 29 30 31 32 33 34 35 36 37 38 39 40 41 42 43 44 45 46 47 48 49 50
000
ASUS43 KLMK 230602
RWRKY
KENTUCKY REGIONAL WEATHER ROUNDUP
NATIONAL WEATHER SERVICE LOUISVILLE KY
200 AM EDT SAT MAY 23 2015

NOTE "FAIR" INDICATES FEW OR NO CLOUDS BELOW 12,000 FEET
WITH NO SIGNIFICANT WEATHER AND/OR OBSTRUCTIONS TO VISIBILITY.

KYZ001>023-026-027-061>063-070>075-230700-
WESTERN AND SOUTH CENTRAL KENTUCKY

CITY           SKY/WX    TMP DP  RH WIND       PRES   REMARKS
PADUCAH        MOCLDY    59  55  87 N3        30.25F
HENDERSON      PTCLDY    57  54  88 CALM      30.26F
OWENSBORO      PTCLDY    60  55  83 CALM      30.28F
HOPKINSVILLE   CLOUDY    58  53  85 NE6       30.25F
BOWLING GREEN  PTCLDY    55  49  80 CALM      30.28F
GLASGOW        NOT AVBL
$$

KYZ024-025-028>034-038-045-046-053-230700-
NORTH CENTRAL KENTUCKY

CITY           SKY/WX    TMP DP  RH WIND       PRES   REMARKS
LOUISVILLE/SDF MOCLDY    61  50  67 CALM      30.28F
LOUISVILLE/LOU CLEAR     56  49  77 CALM      30.29F
FORT KNOX      PTCLDY    51  48  92 CALM      30.28S
$$

KYZ035>037-039>044-047>052-055>060-089>105-230700-
NORTHEAST KENTUCKY

CITY           SKY/WX    TMP DP  RH WIND       PRES   REMARKS
LEXINGTON      CLEAR     51  46  83 S3        30.31S
COVINGTON      CLEAR     52  47  83 CALM      30.29S
FRANKFORT      CLEAR     53  47  79 CALM      30.29F
$$

KYZ054-064>069-076>088-106>120-230700-
SOUTHEAST KENTUCKY

CITY           SKY/WX    TMP DP  RH WIND       PRES   REMARKS
JACKSON        PTCLDY    55  46  71 CALM      30.32S
LONDON         CLOUDY    52  45  77 CALM      30.32S
SOMERSET       NOT AVBL
MIDDLESBORO    NOT AVBL
MONTICELLO     PTCLDY    51  49  93 CALM      30.33F
$$




USA.gov is the U.S. government's official web portal to all federal, state and local government web resources and services.